Index of /20260501/WXO-DD/model_gdps/15km/00/024
Name Last modified Size Description
Parent Directory -
20260501T00Z_MSC_GDPS_AbsoluteVorticity_IsbL-0200_LatLon0.15_PT024H.grib2 2026-05-01 04:02 1.5M
20260501T00Z_MSC_GDPS_AbsoluteVorticity_IsbL-0250_LatLon0.15_PT024H.grib2 2026-05-01 04:02 1.3M
20260501T00Z_MSC_GDPS_AbsoluteVorticity_IsbL-0500_LatLon0.15_PT024H.grib2 2026-05-01 04:02 1.4M
20260501T00Z_MSC_GDPS_AbsoluteVorticity_IsbL-0700_LatLon0.15_PT024H.grib2 2026-05-01 04:02 1.3M
20260501T00Z_MSC_GDPS_AbsoluteVorticity_IsbL-0850_LatLon0.15_PT024H.grib2 2026-05-01 04:02 1.6M
20260501T00Z_MSC_GDPS_AirTemp-Max_AGL-2m_LatLon0.15_PT024H.grib2 2026-05-01 04:02 741K
20260501T00Z_MSC_GDPS_AirTemp-Min_AGL-2m_LatLon0.15_PT024H.grib2 2026-05-01 04:02 793K
20260501T00Z_MSC_GDPS_AirTemp_AGL-120m_LatLon0.15_PT024H.grib2 2026-05-01 04:02 790K
20260501T00Z_MSC_GDPS_AirTemp_AGL-2m_LatLon0.15_PT024H.grib2 2026-05-01 04:02 1.0M
20260501T00Z_MSC_GDPS_AirTemp_AGL-40m_LatLon0.15_PT024H.grib2 2026-05-01 04:02 813K
20260501T00Z_MSC_GDPS_AirTemp_AGL-80m_LatLon0.15_PT024H.grib2 2026-05-01 04:02 801K
20260501T00Z_MSC_GDPS_AirTemp_IsbL-0001_LatLon0.15_PT024H.grib2 2026-05-01 04:02 656K
20260501T00Z_MSC_GDPS_AirTemp_IsbL-0005_LatLon0.15_PT024H.grib2 2026-05-01 04:02 685K
20260501T00Z_MSC_GDPS_AirTemp_IsbL-0010_LatLon0.15_PT024H.grib2 2026-05-01 04:02 760K
20260501T00Z_MSC_GDPS_AirTemp_IsbL-0020_LatLon0.15_PT024H.grib2 2026-05-01 04:02 787K
20260501T00Z_MSC_GDPS_AirTemp_IsbL-0030_LatLon0.15_PT024H.grib2 2026-05-01 04:02 750K
20260501T00Z_MSC_GDPS_AirTemp_IsbL-0050_LatLon0.15_PT024H.grib2 2026-05-01 04:02 808K
20260501T00Z_MSC_GDPS_AirTemp_IsbL-0100_LatLon0.15_PT024H.grib2 2026-05-01 04:02 952K
20260501T00Z_MSC_GDPS_AirTemp_IsbL-0150_LatLon0.15_PT024H.grib2 2026-05-01 04:02 973K
20260501T00Z_MSC_GDPS_AirTemp_IsbL-0175_LatLon0.15_PT024H.grib2 2026-05-01 04:02 960K
20260501T00Z_MSC_GDPS_AirTemp_IsbL-0200_LatLon0.15_PT024H.grib2 2026-05-01 04:02 972K
20260501T00Z_MSC_GDPS_AirTemp_IsbL-0225_LatLon0.15_PT024H.grib2 2026-05-01 04:02 1.0M
20260501T00Z_MSC_GDPS_AirTemp_IsbL-0250_LatLon0.15_PT024H.grib2 2026-05-01 04:02 1.0M
20260501T00Z_MSC_GDPS_AirTemp_IsbL-0275_LatLon0.15_PT024H.grib2 2026-05-01 04:02 1.0M
20260501T00Z_MSC_GDPS_AirTemp_IsbL-0300_LatLon0.15_PT024H.grib2 2026-05-01 04:02 1.0M
20260501T00Z_MSC_GDPS_AirTemp_IsbL-0350_LatLon0.15_PT024H.grib2 2026-05-01 04:02 926K
20260501T00Z_MSC_GDPS_AirTemp_IsbL-0400_LatLon0.15_PT024H.grib2 2026-05-01 04:02 936K
20260501T00Z_MSC_GDPS_AirTemp_IsbL-0450_LatLon0.15_PT024H.grib2 2026-05-01 04:02 960K
20260501T00Z_MSC_GDPS_AirTemp_IsbL-0500_LatLon0.15_PT024H.grib2 2026-05-01 04:02 763K
20260501T00Z_MSC_GDPS_AirTemp_IsbL-0550_LatLon0.15_PT024H.grib2 2026-05-01 04:02 798K
20260501T00Z_MSC_GDPS_AirTemp_IsbL-0600_LatLon0.15_PT024H.grib2 2026-05-01 04:02 892K
20260501T00Z_MSC_GDPS_AirTemp_IsbL-0650_LatLon0.15_PT024H.grib2 2026-05-01 04:02 921K
20260501T00Z_MSC_GDPS_AirTemp_IsbL-0700_LatLon0.15_PT024H.grib2 2026-05-01 04:02 951K
20260501T00Z_MSC_GDPS_AirTemp_IsbL-0750_LatLon0.15_PT024H.grib2 2026-05-01 04:02 1.0M
20260501T00Z_MSC_GDPS_AirTemp_IsbL-0800_LatLon0.15_PT024H.grib2 2026-05-01 04:02 1.1M
20260501T00Z_MSC_GDPS_AirTemp_IsbL-0850_LatLon0.15_PT024H.grib2 2026-05-01 04:02 1.1M
20260501T00Z_MSC_GDPS_AirTemp_IsbL-0875_LatLon0.15_PT024H.grib2 2026-05-01 04:02 1.1M
20260501T00Z_MSC_GDPS_AirTemp_IsbL-0900_LatLon0.15_PT024H.grib2 2026-05-01 04:02 1.1M
20260501T00Z_MSC_GDPS_AirTemp_IsbL-0925_LatLon0.15_PT024H.grib2 2026-05-01 04:02 1.1M
20260501T00Z_MSC_GDPS_AirTemp_IsbL-0950_LatLon0.15_PT024H.grib2 2026-05-01 04:02 1.1M
20260501T00Z_MSC_GDPS_AirTemp_IsbL-0970_LatLon0.15_PT024H.grib2 2026-05-01 04:02 1.2M
20260501T00Z_MSC_GDPS_AirTemp_IsbL-0985_LatLon0.15_PT024H.grib2 2026-05-01 04:02 1.1M
20260501T00Z_MSC_GDPS_AirTemp_IsbL-1000_LatLon0.15_PT024H.grib2 2026-05-01 04:02 1.1M
20260501T00Z_MSC_GDPS_AirTemp_IsbL-1015_LatLon0.15_PT024H.grib2 2026-05-01 04:02 1.1M
20260501T00Z_MSC_GDPS_Albedo_Sfc_LatLon0.15_PT024H.grib2 2026-05-01 04:02 242K
20260501T00Z_MSC_GDPS_CAPE_Sfc_LatLon0.15_PT024H.grib2 2026-05-01 04:02 3.9M
20260501T00Z_MSC_GDPS_CIN_Sfc_LatLon0.15_PT024H.grib2 2026-05-01 04:02 2.9M
20260501T00Z_MSC_GDPS_CloudWater_EAtm_LatLon0.15_PT024H.grib2 2026-05-01 04:02 530K
20260501T00Z_MSC_GDPS_ConvectivePrecip-Accum_Sfc_LatLon0.15_PT024H.grib2 2026-05-01 04:02 2.3M
20260501T00Z_MSC_GDPS_DewPointDepression_AGL-2m_LatLon0.15_PT024H.grib2 2026-05-01 04:02 760K
20260501T00Z_MSC_GDPS_DewPointDepression_IsbL-0010_LatLon0.15_PT024H.grib2 2026-05-01 04:02 60K
20260501T00Z_MSC_GDPS_DewPointDepression_IsbL-0020_LatLon0.15_PT024H.grib2 2026-05-01 04:02 65K
20260501T00Z_MSC_GDPS_DewPointDepression_IsbL-0030_LatLon0.15_PT024H.grib2 2026-05-01 04:02 79K
20260501T00Z_MSC_GDPS_DewPointDepression_IsbL-0050_LatLon0.15_PT024H.grib2 2026-05-01 04:02 373K
20260501T00Z_MSC_GDPS_DewPointDepression_IsbL-0100_LatLon0.15_PT024H.grib2 2026-05-01 04:02 415K
20260501T00Z_MSC_GDPS_DewPointDepression_IsbL-0150_LatLon0.15_PT024H.grib2 2026-05-01 04:02 465K
20260501T00Z_MSC_GDPS_DewPointDepression_IsbL-0175_LatLon0.15_PT024H.grib2 2026-05-01 04:02 572K
20260501T00Z_MSC_GDPS_DewPointDepression_IsbL-0200_LatLon0.15_PT024H.grib2 2026-05-01 04:02 689K
20260501T00Z_MSC_GDPS_DewPointDepression_IsbL-0225_LatLon0.15_PT024H.grib2 2026-05-01 04:02 790K
20260501T00Z_MSC_GDPS_DewPointDepression_IsbL-0250_LatLon0.15_PT024H.grib2 2026-05-01 04:02 874K
20260501T00Z_MSC_GDPS_DewPointDepression_IsbL-0275_LatLon0.15_PT024H.grib2 2026-05-01 04:02 891K
20260501T00Z_MSC_GDPS_DewPointDepression_IsbL-0300_LatLon0.15_PT024H.grib2 2026-05-01 04:02 929K
20260501T00Z_MSC_GDPS_DewPointDepression_IsbL-0350_LatLon0.15_PT024H.grib2 2026-05-01 04:02 951K
20260501T00Z_MSC_GDPS_DewPointDepression_IsbL-0400_LatLon0.15_PT024H.grib2 2026-05-01 04:02 1.0M
20260501T00Z_MSC_GDPS_DewPointDepression_IsbL-0450_LatLon0.15_PT024H.grib2 2026-05-01 04:02 1.0M
20260501T00Z_MSC_GDPS_DewPointDepression_IsbL-0500_LatLon0.15_PT024H.grib2 2026-05-01 04:02 1.0M
20260501T00Z_MSC_GDPS_DewPointDepression_IsbL-0550_LatLon0.15_PT024H.grib2 2026-05-01 04:02 1.0M
20260501T00Z_MSC_GDPS_DewPointDepression_IsbL-0600_LatLon0.15_PT024H.grib2 2026-05-01 04:02 1.0M
20260501T00Z_MSC_GDPS_DewPointDepression_IsbL-0650_LatLon0.15_PT024H.grib2 2026-05-01 04:02 1.1M
20260501T00Z_MSC_GDPS_DewPointDepression_IsbL-0700_LatLon0.15_PT024H.grib2 2026-05-01 04:02 1.1M
20260501T00Z_MSC_GDPS_DewPointDepression_IsbL-0750_LatLon0.15_PT024H.grib2 2026-05-01 04:02 1.1M
20260501T00Z_MSC_GDPS_DewPointDepression_IsbL-0800_LatLon0.15_PT024H.grib2 2026-05-01 04:02 1.2M
20260501T00Z_MSC_GDPS_DewPointDepression_IsbL-0850_LatLon0.15_PT024H.grib2 2026-05-01 04:02 1.1M
20260501T00Z_MSC_GDPS_DewPointDepression_IsbL-0875_LatLon0.15_PT024H.grib2 2026-05-01 04:02 1.1M
20260501T00Z_MSC_GDPS_DewPointDepression_IsbL-0900_LatLon0.15_PT024H.grib2 2026-05-01 04:02 1.1M
20260501T00Z_MSC_GDPS_DewPointDepression_IsbL-0925_LatLon0.15_PT024H.grib2 2026-05-01 04:02 1.0M
20260501T00Z_MSC_GDPS_DewPointDepression_IsbL-0950_LatLon0.15_PT024H.grib2 2026-05-01 04:02 1.0M
20260501T00Z_MSC_GDPS_DewPointDepression_IsbL-0970_LatLon0.15_PT024H.grib2 2026-05-01 04:02 1.0M
20260501T00Z_MSC_GDPS_DewPointDepression_IsbL-0985_LatLon0.15_PT024H.grib2 2026-05-01 04:02 1.0M
20260501T00Z_MSC_GDPS_DewPointDepression_IsbL-1000_LatLon0.15_PT024H.grib2 2026-05-01 04:02 1.0M
20260501T00Z_MSC_GDPS_DewPointDepression_IsbL-1015_LatLon0.15_PT024H.grib2 2026-05-01 04:02 911K
20260501T00Z_MSC_GDPS_DewPoint_AGL-2m_LatLon0.15_PT024H.grib2 2026-05-01 04:02 600K
20260501T00Z_MSC_GDPS_DownwardLongwaveRadiationFlux-Accum_Sfc_LatLon0.15_PT024H.grib2 2026-05-01 04:02 1.0M
20260501T00Z_MSC_GDPS_DownwardShortwaveRadiationFlux-Accum_NTAtm_LatLon0.15_PT024H.grib2 2026-05-01 04:02 247K
20260501T00Z_MSC_GDPS_DownwardShortwaveRadiationFlux-Accum_Sfc_LatLon0.15_PT024H.grib2 2026-05-01 04:02 1.2M
20260501T00Z_MSC_GDPS_FreezingRain-Accum12h_Sfc_LatLon0.15_PT024H.grib2 2026-05-01 04:02 112K
20260501T00Z_MSC_GDPS_FreezingRain-Accum1h_Sfc_LatLon0.15_PT024H.grib2 2026-05-01 04:02 43K
20260501T00Z_MSC_GDPS_FreezingRain-Accum24h_Sfc_LatLon0.15_PT024H.grib2 2026-05-01 04:02 160K
20260501T00Z_MSC_GDPS_FreezingRain-Accum3h_Sfc_LatLon0.15_PT024H.grib2 2026-05-01 04:02 56K
20260501T00Z_MSC_GDPS_FreezingRain-Accum6h_Sfc_LatLon0.15_PT024H.grib2 2026-05-01 04:02 76K
20260501T00Z_MSC_GDPS_FreezingRain-Accum_Sfc_LatLon0.15_PT024H.grib2 2026-05-01 04:02 189K
20260501T00Z_MSC_GDPS_GeopotentialHeight_IsbL-0001_LatLon0.15_PT024H.grib2 2026-05-01 04:02 419K
20260501T00Z_MSC_GDPS_GeopotentialHeight_IsbL-0005_LatLon0.15_PT024H.grib2 2026-05-01 04:02 487K
20260501T00Z_MSC_GDPS_GeopotentialHeight_IsbL-0010_LatLon0.15_PT024H.grib2 2026-05-01 04:02 475K
20260501T00Z_MSC_GDPS_GeopotentialHeight_IsbL-0020_LatLon0.15_PT024H.grib2 2026-05-01 04:02 412K
20260501T00Z_MSC_GDPS_GeopotentialHeight_IsbL-0030_LatLon0.15_PT024H.grib2 2026-05-01 04:02 566K
20260501T00Z_MSC_GDPS_GeopotentialHeight_IsbL-0050_LatLon0.15_PT024H.grib2 2026-05-01 04:02 569K
20260501T00Z_MSC_GDPS_GeopotentialHeight_IsbL-0100_LatLon0.15_PT024H.grib2 2026-05-01 04:02 607K
20260501T00Z_MSC_GDPS_GeopotentialHeight_IsbL-0150_LatLon0.15_PT024H.grib2 2026-05-01 04:02 627K
20260501T00Z_MSC_GDPS_GeopotentialHeight_IsbL-0175_LatLon0.15_PT024H.grib2 2026-05-01 04:02 630K
20260501T00Z_MSC_GDPS_GeopotentialHeight_IsbL-0200_LatLon0.15_PT024H.grib2 2026-05-01 04:02 635K
20260501T00Z_MSC_GDPS_GeopotentialHeight_IsbL-0225_LatLon0.15_PT024H.grib2 2026-05-01 04:02 639K
20260501T00Z_MSC_GDPS_GeopotentialHeight_IsbL-0250_LatLon0.15_PT024H.grib2 2026-05-01 04:02 641K
20260501T00Z_MSC_GDPS_GeopotentialHeight_IsbL-0275_LatLon0.15_PT024H.grib2 2026-05-01 04:02 639K
20260501T00Z_MSC_GDPS_GeopotentialHeight_IsbL-0300_LatLon0.15_PT024H.grib2 2026-05-01 04:02 631K
20260501T00Z_MSC_GDPS_GeopotentialHeight_IsbL-0350_LatLon0.15_PT024H.grib2 2026-05-01 04:02 629K
20260501T00Z_MSC_GDPS_GeopotentialHeight_IsbL-0400_LatLon0.15_PT024H.grib2 2026-05-01 04:02 621K
20260501T00Z_MSC_GDPS_GeopotentialHeight_IsbL-0450_LatLon0.15_PT024H.grib2 2026-05-01 04:02 612K
20260501T00Z_MSC_GDPS_GeopotentialHeight_IsbL-0500_LatLon0.15_PT024H.grib2 2026-05-01 04:02 532K
20260501T00Z_MSC_GDPS_GeopotentialHeight_IsbL-0550_LatLon0.15_PT024H.grib2 2026-05-01 04:02 525K
20260501T00Z_MSC_GDPS_GeopotentialHeight_IsbL-0600_LatLon0.15_PT024H.grib2 2026-05-01 04:02 522K
20260501T00Z_MSC_GDPS_GeopotentialHeight_IsbL-0650_LatLon0.15_PT024H.grib2 2026-05-01 04:02 520K
20260501T00Z_MSC_GDPS_GeopotentialHeight_IsbL-0700_LatLon0.15_PT024H.grib2 2026-05-01 04:02 687K
20260501T00Z_MSC_GDPS_GeopotentialHeight_IsbL-0750_LatLon0.15_PT024H.grib2 2026-05-01 04:02 692K
20260501T00Z_MSC_GDPS_GeopotentialHeight_IsbL-0800_LatLon0.15_PT024H.grib2 2026-05-01 04:02 702K
20260501T00Z_MSC_GDPS_GeopotentialHeight_IsbL-0850_LatLon0.15_PT024H.grib2 2026-05-01 04:02 709K
20260501T00Z_MSC_GDPS_GeopotentialHeight_IsbL-0875_LatLon0.15_PT024H.grib2 2026-05-01 04:02 716K
20260501T00Z_MSC_GDPS_GeopotentialHeight_IsbL-0900_LatLon0.15_PT024H.grib2 2026-05-01 04:02 719K
20260501T00Z_MSC_GDPS_GeopotentialHeight_IsbL-0925_LatLon0.15_PT024H.grib2 2026-05-01 04:02 731K
20260501T00Z_MSC_GDPS_GeopotentialHeight_IsbL-0950_LatLon0.15_PT024H.grib2 2026-05-01 04:02 737K
20260501T00Z_MSC_GDPS_GeopotentialHeight_IsbL-0970_LatLon0.15_PT024H.grib2 2026-05-01 04:02 749K
20260501T00Z_MSC_GDPS_GeopotentialHeight_IsbL-0985_LatLon0.15_PT024H.grib2 2026-05-01 04:02 765K
20260501T00Z_MSC_GDPS_GeopotentialHeight_IsbL-1000_LatLon0.15_PT024H.grib2 2026-05-01 04:02 785K
20260501T00Z_MSC_GDPS_GeopotentialHeight_IsbL-1015_LatLon0.15_PT024H.grib2 2026-05-01 04:02 615K
20260501T00Z_MSC_GDPS_Humidex_Sfc_LatLon0.15_PT024H.grib2 2026-05-01 04:02 5.3M
20260501T00Z_MSC_GDPS_IcePellets-Accum12h_Sfc_LatLon0.15_PT024H.grib2 2026-05-01 04:02 27K
20260501T00Z_MSC_GDPS_IcePellets-Accum1h_Sfc_LatLon0.15_PT024H.grib2 2026-05-01 04:02 9.8K
20260501T00Z_MSC_GDPS_IcePellets-Accum24h_Sfc_LatLon0.15_PT024H.grib2 2026-05-01 04:02 41K
20260501T00Z_MSC_GDPS_IcePellets-Accum3h_Sfc_LatLon0.15_PT024H.grib2 2026-05-01 04:02 11K
20260501T00Z_MSC_GDPS_IcePellets-Accum6h_Sfc_LatLon0.15_PT024H.grib2 2026-05-01 04:02 15K
20260501T00Z_MSC_GDPS_IcePellets-Accum_Sfc_LatLon0.15_PT024H.grib2 2026-05-01 04:02 43K
20260501T00Z_MSC_GDPS_KIndex_Sfc_LatLon0.15_PT024H.grib2 2026-05-01 04:02 6.5M
20260501T00Z_MSC_GDPS_LatentHeatNetFlux_Sfc_LatLon0.15_PT024H.grib2 2026-05-01 04:02 655K
20260501T00Z_MSC_GDPS_LiftedIndex-MU-VT_IsbL-0500_LatLon0.15_PT024H.grib2 2026-05-01 04:02 5.3M
20260501T00Z_MSC_GDPS_NetLongwaveRadiationFlux-Accum_Sfc_LatLon0.15_PT024H.grib2 2026-05-01 04:02 1.2M
20260501T00Z_MSC_GDPS_NetShortwaveRadiationFlux-Accum_Sfc_LatLon0.15_PT024H.grib2 2026-05-01 04:02 1.1M
20260501T00Z_MSC_GDPS_O3MixingRatio_Sfc_LatLon0.15_PT024H.grib2 2026-05-01 04:49 2.0M
20260501T00Z_MSC_GDPS_O3_EAtm_LatLon0.15_PT024H.grib2 2026-05-01 04:49 2.5M
20260501T00Z_MSC_GDPS_PlanetaryBoundaryLayerHeight_Sfc_LatLon0.15_PT024H.grib2 2026-05-01 04:02 2.4M
20260501T00Z_MSC_GDPS_Precip-Accum12h_Sfc_LatLon0.15_PT024H.grib2 2026-05-01 04:02 4.0M
20260501T00Z_MSC_GDPS_Precip-Accum1h_Sfc_LatLon0.15_PT024H.grib2 2026-05-01 04:02 3.2M
20260501T00Z_MSC_GDPS_Precip-Accum24h_Sfc_LatLon0.15_PT024H.grib2 2026-05-01 04:02 4.5M
20260501T00Z_MSC_GDPS_Precip-Accum3h_Sfc_LatLon0.15_PT024H.grib2 2026-05-01 04:02 3.4M
20260501T00Z_MSC_GDPS_Precip-Accum6h_Sfc_LatLon0.15_PT024H.grib2 2026-05-01 04:02 3.8M
20260501T00Z_MSC_GDPS_Precip-Accum_Sfc_LatLon0.15_PT024H.grib2 2026-05-01 04:02 4.3M
20260501T00Z_MSC_GDPS_PrecipRate_Sfc_LatLon0.15_PT024H.grib2 2026-05-01 04:02 2.9M
20260501T00Z_MSC_GDPS_PrecipType-Instant_Sfc_LatLon0.15_PT024H.grib2 2026-05-01 04:02 1.5M
20260501T00Z_MSC_GDPS_Pressure_MSL_LatLon0.15_PT024H.grib2 2026-05-01 04:02 830K
20260501T00Z_MSC_GDPS_Pressure_PVU-1.5_LatLon0.15_PT024H.grib2 2026-05-01 04:02 5.8M
20260501T00Z_MSC_GDPS_Pressure_PVU-1_LatLon0.15_PT024H.grib2 2026-05-01 04:02 6.0M
20260501T00Z_MSC_GDPS_Pressure_PVU-2_LatLon0.15_PT024H.grib2 2026-05-01 04:02 5.6M
20260501T00Z_MSC_GDPS_Pressure_Sfc_LatLon0.15_PT024H.grib2 2026-05-01 04:02 1.1M
20260501T00Z_MSC_GDPS_RadiativeTemp_Sfc_LatLon0.15_PT024H.grib2 2026-05-01 04:02 650K
20260501T00Z_MSC_GDPS_Rain-Accum12h_Sfc_LatLon0.15_PT024H.grib2 2026-05-01 04:02 2.7M
20260501T00Z_MSC_GDPS_Rain-Accum1h_Sfc_LatLon0.15_PT024H.grib2 2026-05-01 04:02 1.6M
20260501T00Z_MSC_GDPS_Rain-Accum24h_Sfc_LatLon0.15_PT024H.grib2 2026-05-01 04:02 3.2M
20260501T00Z_MSC_GDPS_Rain-Accum3h_Sfc_LatLon0.15_PT024H.grib2 2026-05-01 04:02 1.8M
20260501T00Z_MSC_GDPS_Rain-Accum6h_Sfc_LatLon0.15_PT024H.grib2 2026-05-01 04:02 2.4M
20260501T00Z_MSC_GDPS_Rain-Accum_Sfc_LatLon0.15_PT024H.grib2 2026-05-01 04:02 3.2M
20260501T00Z_MSC_GDPS_RelativeHumidity_AGL-2m_LatLon0.15_PT024H.grib2 2026-05-01 04:02 1.0M
20260501T00Z_MSC_GDPS_RelativeHumidity_IsbL-0010_LatLon0.15_PT024H.grib2 2026-05-01 04:02 203K
20260501T00Z_MSC_GDPS_RelativeHumidity_IsbL-0020_LatLon0.15_PT024H.grib2 2026-05-01 04:02 279K
20260501T00Z_MSC_GDPS_RelativeHumidity_IsbL-0030_LatLon0.15_PT024H.grib2 2026-05-01 04:02 269K
20260501T00Z_MSC_GDPS_RelativeHumidity_IsbL-0050_LatLon0.15_PT024H.grib2 2026-05-01 04:02 420K
20260501T00Z_MSC_GDPS_RelativeHumidity_IsbL-0100_LatLon0.15_PT024H.grib2 2026-05-01 04:02 517K
20260501T00Z_MSC_GDPS_RelativeHumidity_IsbL-0150_LatLon0.15_PT024H.grib2 2026-05-01 04:02 660K
20260501T00Z_MSC_GDPS_RelativeHumidity_IsbL-0175_LatLon0.15_PT024H.grib2 2026-05-01 04:02 774K
20260501T00Z_MSC_GDPS_RelativeHumidity_IsbL-0200_LatLon0.15_PT024H.grib2 2026-05-01 04:02 697K
20260501T00Z_MSC_GDPS_RelativeHumidity_IsbL-0225_LatLon0.15_PT024H.grib2 2026-05-01 04:02 790K
20260501T00Z_MSC_GDPS_RelativeHumidity_IsbL-0250_LatLon0.15_PT024H.grib2 2026-05-01 04:02 869K
20260501T00Z_MSC_GDPS_RelativeHumidity_IsbL-0275_LatLon0.15_PT024H.grib2 2026-05-01 04:02 888K
20260501T00Z_MSC_GDPS_RelativeHumidity_IsbL-0300_LatLon0.15_PT024H.grib2 2026-05-01 04:02 928K
20260501T00Z_MSC_GDPS_RelativeHumidity_IsbL-0350_LatLon0.15_PT024H.grib2 2026-05-01 04:02 946K
20260501T00Z_MSC_GDPS_RelativeHumidity_IsbL-0400_LatLon0.15_PT024H.grib2 2026-05-01 04:02 968K
20260501T00Z_MSC_GDPS_RelativeHumidity_IsbL-0450_LatLon0.15_PT024H.grib2 2026-05-01 04:02 1.0M
20260501T00Z_MSC_GDPS_RelativeHumidity_IsbL-0500_LatLon0.15_PT024H.grib2 2026-05-01 04:02 1.0M
20260501T00Z_MSC_GDPS_RelativeHumidity_IsbL-0550_LatLon0.15_PT024H.grib2 2026-05-01 04:02 1.1M
20260501T00Z_MSC_GDPS_RelativeHumidity_IsbL-0600_LatLon0.15_PT024H.grib2 2026-05-01 04:02 1.1M
20260501T00Z_MSC_GDPS_RelativeHumidity_IsbL-0650_LatLon0.15_PT024H.grib2 2026-05-01 04:02 1.1M
20260501T00Z_MSC_GDPS_RelativeHumidity_IsbL-0700_LatLon0.15_PT024H.grib2 2026-05-01 04:02 1.1M
20260501T00Z_MSC_GDPS_RelativeHumidity_IsbL-0750_LatLon0.15_PT024H.grib2 2026-05-01 04:02 1.2M
20260501T00Z_MSC_GDPS_RelativeHumidity_IsbL-0800_LatLon0.15_PT024H.grib2 2026-05-01 04:02 1.3M
20260501T00Z_MSC_GDPS_RelativeHumidity_IsbL-0850_LatLon0.15_PT024H.grib2 2026-05-01 04:02 1.3M
20260501T00Z_MSC_GDPS_RelativeHumidity_IsbL-0875_LatLon0.15_PT024H.grib2 2026-05-01 04:02 1.3M
20260501T00Z_MSC_GDPS_RelativeHumidity_IsbL-0900_LatLon0.15_PT024H.grib2 2026-05-01 04:02 1.2M
20260501T00Z_MSC_GDPS_RelativeHumidity_IsbL-0925_LatLon0.15_PT024H.grib2 2026-05-01 04:02 1.2M
20260501T00Z_MSC_GDPS_RelativeHumidity_IsbL-0950_LatLon0.15_PT024H.grib2 2026-05-01 04:02 1.2M
20260501T00Z_MSC_GDPS_RelativeHumidity_IsbL-0970_LatLon0.15_PT024H.grib2 2026-05-01 04:02 1.2M
20260501T00Z_MSC_GDPS_RelativeHumidity_IsbL-0985_LatLon0.15_PT024H.grib2 2026-05-01 04:02 1.2M
20260501T00Z_MSC_GDPS_RelativeHumidity_IsbL-1000_LatLon0.15_PT024H.grib2 2026-05-01 04:02 1.1M
20260501T00Z_MSC_GDPS_RelativeHumidity_IsbL-1015_LatLon0.15_PT024H.grib2 2026-05-01 04:02 1.0M
20260501T00Z_MSC_GDPS_RelativeVorticity_IsbL-0200_LatLon0.15_PT024H.grib2 2026-05-01 04:02 1.5M
20260501T00Z_MSC_GDPS_RelativeVorticity_IsbL-0250_LatLon0.15_PT024H.grib2 2026-05-01 04:02 1.3M
20260501T00Z_MSC_GDPS_RelativeVorticity_IsbL-0500_LatLon0.15_PT024H.grib2 2026-05-01 04:02 1.4M
20260501T00Z_MSC_GDPS_RelativeVorticity_IsbL-0700_LatLon0.15_PT024H.grib2 2026-05-01 04:02 1.6M
20260501T00Z_MSC_GDPS_RelativeVorticity_IsbL-0850_LatLon0.15_PT024H.grib2 2026-05-01 04:02 1.6M
20260501T00Z_MSC_GDPS_Runoff-Accum_Sfc_LatLon0.15_PT024H.grib2 2026-05-01 04:02 121K
20260501T00Z_MSC_GDPS_SensibleHeatNetFlux_Sfc_LatLon0.15_PT024H.grib2 2026-05-01 04:02 604K
20260501T00Z_MSC_GDPS_ShowalterIndex_IsbL-0500_LatLon0.15_PT024H.grib2 2026-05-01 04:02 6.2M
20260501T00Z_MSC_GDPS_Snow-Accum12h_Sfc_LatLon0.15_PT024H.grib2 2026-05-01 04:02 1.4M
20260501T00Z_MSC_GDPS_Snow-Accum1h_Sfc_LatLon0.15_PT024H.grib2 2026-05-01 04:02 1.0M
20260501T00Z_MSC_GDPS_Snow-Accum24h_Sfc_LatLon0.15_PT024H.grib2 2026-05-01 04:02 1.5M
20260501T00Z_MSC_GDPS_Snow-Accum3h_Sfc_LatLon0.15_PT024H.grib2 2026-05-01 04:02 896K
20260501T00Z_MSC_GDPS_Snow-Accum6h_Sfc_LatLon0.15_PT024H.grib2 2026-05-01 04:02 1.3M
20260501T00Z_MSC_GDPS_Snow-Accum_Sfc_LatLon0.15_PT024H.grib2 2026-05-01 04:02 1.7M
20260501T00Z_MSC_GDPS_SnowDensity_Sfc_LatLon0.15_PT024H.grib2 2026-05-01 04:02 258K
20260501T00Z_MSC_GDPS_SnowDepth_Sfc_LatLon0.15_PT024H.grib2 2026-05-01 04:02 1.7M
20260501T00Z_MSC_GDPS_SoilTemp_DBS-0to10cm_LatLon0.15_PT024H.grib2 2026-05-01 04:02 499K
20260501T00Z_MSC_GDPS_SoilTemp_Sfc_LatLon0.15_PT024H.grib2 2026-05-01 04:02 554K
20260501T00Z_MSC_GDPS_SoilVolumetricIceContent_Sfc_LatLon0.15_PT024H.grib2 2026-05-01 04:02 203K
20260501T00Z_MSC_GDPS_SoilVolumetricWaterContent_DBS-0to10cm_LatLon0.15_PT024H.grib2 2026-05-01 04:02 586K
20260501T00Z_MSC_GDPS_SoilVolumetricWaterContent_DBS-0to1cm_LatLon0.15_PT024H.grib2 2026-05-01 04:02 649K
20260501T00Z_MSC_GDPS_SpecificHumidity_AGL-120m_LatLon0.15_PT024H.grib2 2026-05-01 04:02 1.1M
20260501T00Z_MSC_GDPS_SpecificHumidity_AGL-2m_LatLon0.15_PT024H.grib2 2026-05-01 04:02 1.2M
20260501T00Z_MSC_GDPS_SpecificHumidity_AGL-40m_LatLon0.15_PT024H.grib2 2026-05-01 04:02 1.1M
20260501T00Z_MSC_GDPS_SpecificHumidity_AGL-80m_LatLon0.15_PT024H.grib2 2026-05-01 04:02 1.1M
20260501T00Z_MSC_GDPS_SpecificHumidity_IsbL-0001_LatLon0.15_PT024H.grib2 2026-05-01 04:02 1.4M
20260501T00Z_MSC_GDPS_SpecificHumidity_IsbL-0005_LatLon0.15_PT024H.grib2 2026-05-01 04:02 1.3M
20260501T00Z_MSC_GDPS_SpecificHumidity_IsbL-0010_LatLon0.15_PT024H.grib2 2026-05-01 04:02 1.4M
20260501T00Z_MSC_GDPS_SpecificHumidity_IsbL-0020_LatLon0.15_PT024H.grib2 2026-05-01 04:02 1.4M
20260501T00Z_MSC_GDPS_SpecificHumidity_IsbL-0030_LatLon0.15_PT024H.grib2 2026-05-01 04:02 1.4M
20260501T00Z_MSC_GDPS_SpecificHumidity_IsbL-0050_LatLon0.15_PT024H.grib2 2026-05-01 04:02 1.4M
20260501T00Z_MSC_GDPS_SpecificHumidity_IsbL-0100_LatLon0.15_PT024H.grib2 2026-05-01 04:02 1.4M
20260501T00Z_MSC_GDPS_SpecificHumidity_IsbL-0150_LatLon0.15_PT024H.grib2 2026-05-01 04:02 1.3M
20260501T00Z_MSC_GDPS_SpecificHumidity_IsbL-0175_LatLon0.15_PT024H.grib2 2026-05-01 04:02 1.2M
20260501T00Z_MSC_GDPS_SpecificHumidity_IsbL-0200_LatLon0.15_PT024H.grib2 2026-05-01 04:02 1.3M
20260501T00Z_MSC_GDPS_SpecificHumidity_IsbL-0225_LatLon0.15_PT024H.grib2 2026-05-01 04:02 1.3M
20260501T00Z_MSC_GDPS_SpecificHumidity_IsbL-0250_LatLon0.15_PT024H.grib2 2026-05-01 04:02 1.4M
20260501T00Z_MSC_GDPS_SpecificHumidity_IsbL-0275_LatLon0.15_PT024H.grib2 2026-05-01 04:02 1.3M
20260501T00Z_MSC_GDPS_SpecificHumidity_IsbL-0300_LatLon0.15_PT024H.grib2 2026-05-01 04:02 1.2M
20260501T00Z_MSC_GDPS_SpecificHumidity_IsbL-0350_LatLon0.15_PT024H.grib2 2026-05-01 04:02 1.5M
20260501T00Z_MSC_GDPS_SpecificHumidity_IsbL-0400_LatLon0.15_PT024H.grib2 2026-05-01 04:02 1.4M
20260501T00Z_MSC_GDPS_SpecificHumidity_IsbL-0450_LatLon0.15_PT024H.grib2 2026-05-01 04:02 1.6M
20260501T00Z_MSC_GDPS_SpecificHumidity_IsbL-0500_LatLon0.15_PT024H.grib2 2026-05-01 04:02 1.4M
20260501T00Z_MSC_GDPS_SpecificHumidity_IsbL-0550_LatLon0.15_PT024H.grib2 2026-05-01 04:02 1.6M
20260501T00Z_MSC_GDPS_SpecificHumidity_IsbL-0600_LatLon0.15_PT024H.grib2 2026-05-01 04:02 1.7M
20260501T00Z_MSC_GDPS_SpecificHumidity_IsbL-0650_LatLon0.15_PT024H.grib2 2026-05-01 04:02 1.5M
20260501T00Z_MSC_GDPS_SpecificHumidity_IsbL-0700_LatLon0.15_PT024H.grib2 2026-05-01 04:02 1.6M
20260501T00Z_MSC_GDPS_SpecificHumidity_IsbL-0750_LatLon0.15_PT024H.grib2 2026-05-01 04:02 1.7M
20260501T00Z_MSC_GDPS_SpecificHumidity_IsbL-0800_LatLon0.15_PT024H.grib2 2026-05-01 04:02 1.8M
20260501T00Z_MSC_GDPS_SpecificHumidity_IsbL-0850_LatLon0.15_PT024H.grib2 2026-05-01 04:02 1.9M
20260501T00Z_MSC_GDPS_SpecificHumidity_IsbL-0875_LatLon0.15_PT024H.grib2 2026-05-01 04:02 1.9M
20260501T00Z_MSC_GDPS_SpecificHumidity_IsbL-0900_LatLon0.15_PT024H.grib2 2026-05-01 04:02 1.6M
20260501T00Z_MSC_GDPS_SpecificHumidity_IsbL-0925_LatLon0.15_PT024H.grib2 2026-05-01 04:02 1.6M
20260501T00Z_MSC_GDPS_SpecificHumidity_IsbL-0950_LatLon0.15_PT024H.grib2 2026-05-01 04:02 1.5M
20260501T00Z_MSC_GDPS_SpecificHumidity_IsbL-0970_LatLon0.15_PT024H.grib2 2026-05-01 04:02 1.5M
20260501T00Z_MSC_GDPS_SpecificHumidity_IsbL-0985_LatLon0.15_PT024H.grib2 2026-05-01 04:02 1.5M
20260501T00Z_MSC_GDPS_SpecificHumidity_IsbL-1000_LatLon0.15_PT024H.grib2 2026-05-01 04:02 1.5M
20260501T00Z_MSC_GDPS_SpecificHumidity_IsbL-1015_LatLon0.15_PT024H.grib2 2026-05-01 04:02 1.4M
20260501T00Z_MSC_GDPS_SpecificHumidity_Sfc_LatLon0.15_PT024H.grib2 2026-05-01 04:02 626K
20260501T00Z_MSC_GDPS_Thickness_IsbL-0850to0700_LatLon0.15_PT024H.grib2 2026-05-01 04:02 465K
20260501T00Z_MSC_GDPS_Thickness_IsbL-1000to0500_LatLon0.15_PT024H.grib2 2026-05-01 04:02 370K
20260501T00Z_MSC_GDPS_Thickness_IsbL-1000to0850_LatLon0.15_PT024H.grib2 2026-05-01 04:02 485K
20260501T00Z_MSC_GDPS_TotalCloudCover_Sfc_LatLon0.15_PT024H.grib2 2026-05-01 04:02 822K
20260501T00Z_MSC_GDPS_TotalTotalsIndex_Sfc_LatLon0.15_PT024H.grib2 2026-05-01 04:02 6.2M
20260501T00Z_MSC_GDPS_UVIndex-ClearSky_Sfc_LatLon0.15_PT024H.grib2 2026-05-01 04:49 1.0M
20260501T00Z_MSC_GDPS_UVIndex_Sfc_LatLon0.15_PT024H.grib2 2026-05-01 04:49 1.5M
20260501T00Z_MSC_GDPS_UpwardLongwaveRadiationFlux_NTAtm_LatLon0.15_PT024H.grib2 2026-05-01 04:02 828K
20260501T00Z_MSC_GDPS_VerticalVelocity_IsbL-0200_LatLon0.15_PT024H.grib2 2026-05-01 04:02 918K
20260501T00Z_MSC_GDPS_VerticalVelocity_IsbL-0250_LatLon0.15_PT024H.grib2 2026-05-01 04:02 1.0M
20260501T00Z_MSC_GDPS_VerticalVelocity_IsbL-0500_LatLon0.15_PT024H.grib2 2026-05-01 04:02 1.0M
20260501T00Z_MSC_GDPS_VerticalVelocity_IsbL-0600_LatLon0.15_PT024H.grib2 2026-05-01 04:02 1.1M
20260501T00Z_MSC_GDPS_VerticalVelocity_IsbL-0700_LatLon0.15_PT024H.grib2 2026-05-01 04:02 1.1M
20260501T00Z_MSC_GDPS_VerticalVelocity_IsbL-0850_LatLon0.15_PT024H.grib2 2026-05-01 04:02 1.3M
20260501T00Z_MSC_GDPS_WindChill_Sfc_LatLon0.15_PT024H.grib2 2026-05-01 04:02 5.3M
20260501T00Z_MSC_GDPS_WindDir_AGL-10m_LatLon0.15_PT024H.grib2 2026-05-01 04:02 1.3M
20260501T00Z_MSC_GDPS_WindDir_AGL-120m_LatLon0.15_PT024H.grib2 2026-05-01 04:02 1.3M
20260501T00Z_MSC_GDPS_WindDir_AGL-40m_LatLon0.15_PT024H.grib2 2026-05-01 04:02 1.4M
20260501T00Z_MSC_GDPS_WindDir_AGL-80m_LatLon0.15_PT024H.grib2 2026-05-01 04:02 1.4M
20260501T00Z_MSC_GDPS_WindDir_IsbL-0001_LatLon0.15_PT024H.grib2 2026-05-01 04:02 679K
20260501T00Z_MSC_GDPS_WindDir_IsbL-0005_LatLon0.15_PT024H.grib2 2026-05-01 04:02 796K
20260501T00Z_MSC_GDPS_WindDir_IsbL-0010_LatLon0.15_PT024H.grib2 2026-05-01 04:02 842K
20260501T00Z_MSC_GDPS_WindDir_IsbL-0020_LatLon0.15_PT024H.grib2 2026-05-01 04:02 958K
20260501T00Z_MSC_GDPS_WindDir_IsbL-0030_LatLon0.15_PT024H.grib2 2026-05-01 04:02 947K
20260501T00Z_MSC_GDPS_WindDir_IsbL-0050_LatLon0.15_PT024H.grib2 2026-05-01 04:02 951K
20260501T00Z_MSC_GDPS_WindDir_IsbL-0100_LatLon0.15_PT024H.grib2 2026-05-01 04:02 1.0M
20260501T00Z_MSC_GDPS_WindDir_IsbL-0150_LatLon0.15_PT024H.grib2 2026-05-01 04:02 1.0M
20260501T00Z_MSC_GDPS_WindDir_IsbL-0175_LatLon0.15_PT024H.grib2 2026-05-01 04:02 1.1M
20260501T00Z_MSC_GDPS_WindDir_IsbL-0200_LatLon0.15_PT024H.grib2 2026-05-01 04:02 1.1M
20260501T00Z_MSC_GDPS_WindDir_IsbL-0225_LatLon0.15_PT024H.grib2 2026-05-01 04:02 1.1M
20260501T00Z_MSC_GDPS_WindDir_IsbL-0250_LatLon0.15_PT024H.grib2 2026-05-01 04:02 1.1M
20260501T00Z_MSC_GDPS_WindDir_IsbL-0275_LatLon0.15_PT024H.grib2 2026-05-01 04:02 1.2M
20260501T00Z_MSC_GDPS_WindDir_IsbL-0300_LatLon0.15_PT024H.grib2 2026-05-01 04:02 1.2M
20260501T00Z_MSC_GDPS_WindDir_IsbL-0350_LatLon0.15_PT024H.grib2 2026-05-01 04:02 1.2M
20260501T00Z_MSC_GDPS_WindDir_IsbL-0400_LatLon0.15_PT024H.grib2 2026-05-01 04:02 1.3M
20260501T00Z_MSC_GDPS_WindDir_IsbL-0450_LatLon0.15_PT024H.grib2 2026-05-01 04:02 1.3M
20260501T00Z_MSC_GDPS_WindDir_IsbL-0500_LatLon0.15_PT024H.grib2 2026-05-01 04:02 1.3M
20260501T00Z_MSC_GDPS_WindDir_IsbL-0550_LatLon0.15_PT024H.grib2 2026-05-01 04:02 1.4M
20260501T00Z_MSC_GDPS_WindDir_IsbL-0600_LatLon0.15_PT024H.grib2 2026-05-01 04:02 1.4M
20260501T00Z_MSC_GDPS_WindDir_IsbL-0650_LatLon0.15_PT024H.grib2 2026-05-01 04:02 1.5M
20260501T00Z_MSC_GDPS_WindDir_IsbL-0700_LatLon0.15_PT024H.grib2 2026-05-01 04:02 1.6M
20260501T00Z_MSC_GDPS_WindDir_IsbL-0750_LatLon0.15_PT024H.grib2 2026-05-01 04:02 1.7M
20260501T00Z_MSC_GDPS_WindDir_IsbL-0800_LatLon0.15_PT024H.grib2 2026-05-01 04:02 1.8M
20260501T00Z_MSC_GDPS_WindDir_IsbL-0850_LatLon0.15_PT024H.grib2 2026-05-01 04:02 1.9M
20260501T00Z_MSC_GDPS_WindDir_IsbL-0875_LatLon0.15_PT024H.grib2 2026-05-01 04:02 1.9M
20260501T00Z_MSC_GDPS_WindDir_IsbL-0900_LatLon0.15_PT024H.grib2 2026-05-01 04:02 2.0M
20260501T00Z_MSC_GDPS_WindDir_IsbL-0925_LatLon0.15_PT024H.grib2 2026-05-01 04:02 2.0M
20260501T00Z_MSC_GDPS_WindDir_IsbL-0950_LatLon0.15_PT024H.grib2 2026-05-01 04:02 2.0M
20260501T00Z_MSC_GDPS_WindDir_IsbL-0970_LatLon0.15_PT024H.grib2 2026-05-01 04:02 2.0M
20260501T00Z_MSC_GDPS_WindDir_IsbL-0985_LatLon0.15_PT024H.grib2 2026-05-01 04:02 2.0M
20260501T00Z_MSC_GDPS_WindDir_IsbL-1000_LatLon0.15_PT024H.grib2 2026-05-01 04:02 2.1M
20260501T00Z_MSC_GDPS_WindDir_IsbL-1015_LatLon0.15_PT024H.grib2 2026-05-01 04:02 2.0M
20260501T00Z_MSC_GDPS_WindGust-Max_AGL-10m_LatLon0.15_PT024H.grib2 2026-05-01 04:02 2.2M
20260501T00Z_MSC_GDPS_WindGust-Min_AGL-10m_LatLon0.15_PT024H.grib2 2026-05-01 04:02 2.2M
20260501T00Z_MSC_GDPS_WindGust_AGL-10m_LatLon0.15_PT024H.grib2 2026-05-01 04:02 2.1M
20260501T00Z_MSC_GDPS_WindSpeed_AGL-10m_LatLon0.15_PT024H.grib2 2026-05-01 04:02 1.1M
20260501T00Z_MSC_GDPS_WindSpeed_AGL-120m_LatLon0.15_PT024H.grib2 2026-05-01 04:02 1.3M
20260501T00Z_MSC_GDPS_WindSpeed_AGL-40m_LatLon0.15_PT024H.grib2 2026-05-01 04:02 1.2M
20260501T00Z_MSC_GDPS_WindSpeed_AGL-80m_LatLon0.15_PT024H.grib2 2026-05-01 04:02 1.3M
20260501T00Z_MSC_GDPS_WindSpeed_IsbL-0001_LatLon0.15_PT024H.grib2 2026-05-01 04:02 641K
20260501T00Z_MSC_GDPS_WindSpeed_IsbL-0005_LatLon0.15_PT024H.grib2 2026-05-01 04:02 698K
20260501T00Z_MSC_GDPS_WindSpeed_IsbL-0010_LatLon0.15_PT024H.grib2 2026-05-01 04:02 632K
20260501T00Z_MSC_GDPS_WindSpeed_IsbL-0020_LatLon0.15_PT024H.grib2 2026-05-01 04:02 863K
20260501T00Z_MSC_GDPS_WindSpeed_IsbL-0030_LatLon0.15_PT024H.grib2 2026-05-01 04:02 868K
20260501T00Z_MSC_GDPS_WindSpeed_IsbL-0050_LatLon0.15_PT024H.grib2 2026-05-01 04:02 911K
20260501T00Z_MSC_GDPS_WindSpeed_IsbL-0100_LatLon0.15_PT024H.grib2 2026-05-01 04:02 1.1M
20260501T00Z_MSC_GDPS_WindSpeed_IsbL-0150_LatLon0.15_PT024H.grib2 2026-05-01 04:02 944K
20260501T00Z_MSC_GDPS_WindSpeed_IsbL-0175_LatLon0.15_PT024H.grib2 2026-05-01 04:02 1.0M
20260501T00Z_MSC_GDPS_WindSpeed_IsbL-0200_LatLon0.15_PT024H.grib2 2026-05-01 04:02 1.1M
20260501T00Z_MSC_GDPS_WindSpeed_IsbL-0225_LatLon0.15_PT024H.grib2 2026-05-01 04:02 1.1M
20260501T00Z_MSC_GDPS_WindSpeed_IsbL-0250_LatLon0.15_PT024H.grib2 2026-05-01 04:02 1.1M
20260501T00Z_MSC_GDPS_WindSpeed_IsbL-0275_LatLon0.15_PT024H.grib2 2026-05-01 04:02 1.1M
20260501T00Z_MSC_GDPS_WindSpeed_IsbL-0300_LatLon0.15_PT024H.grib2 2026-05-01 04:02 1.1M
20260501T00Z_MSC_GDPS_WindSpeed_IsbL-0350_LatLon0.15_PT024H.grib2 2026-05-01 04:02 1.1M
20260501T00Z_MSC_GDPS_WindSpeed_IsbL-0400_LatLon0.15_PT024H.grib2 2026-05-01 04:02 1.1M
20260501T00Z_MSC_GDPS_WindSpeed_IsbL-0450_LatLon0.15_PT024H.grib2 2026-05-01 04:02 1.1M
20260501T00Z_MSC_GDPS_WindSpeed_IsbL-0500_LatLon0.15_PT024H.grib2 2026-05-01 04:02 1.1M
20260501T00Z_MSC_GDPS_WindSpeed_IsbL-0550_LatLon0.15_PT024H.grib2 2026-05-01 04:02 1.1M
20260501T00Z_MSC_GDPS_WindSpeed_IsbL-0600_LatLon0.15_PT024H.grib2 2026-05-01 04:02 1.4M
20260501T00Z_MSC_GDPS_WindSpeed_IsbL-0650_LatLon0.15_PT024H.grib2 2026-05-01 04:02 1.4M
20260501T00Z_MSC_GDPS_WindSpeed_IsbL-0700_LatLon0.15_PT024H.grib2 2026-05-01 04:02 1.5M
20260501T00Z_MSC_GDPS_WindSpeed_IsbL-0750_LatLon0.15_PT024H.grib2 2026-05-01 04:02 1.6M
20260501T00Z_MSC_GDPS_WindSpeed_IsbL-0800_LatLon0.15_PT024H.grib2 2026-05-01 04:02 1.6M
20260501T00Z_MSC_GDPS_WindSpeed_IsbL-0850_LatLon0.15_PT024H.grib2 2026-05-01 04:02 1.7M
20260501T00Z_MSC_GDPS_WindSpeed_IsbL-0875_LatLon0.15_PT024H.grib2 2026-05-01 04:02 1.8M
20260501T00Z_MSC_GDPS_WindSpeed_IsbL-0900_LatLon0.15_PT024H.grib2 2026-05-01 04:02 1.8M
20260501T00Z_MSC_GDPS_WindSpeed_IsbL-0925_LatLon0.15_PT024H.grib2 2026-05-01 04:02 1.8M
20260501T00Z_MSC_GDPS_WindSpeed_IsbL-0950_LatLon0.15_PT024H.grib2 2026-05-01 04:02 1.9M
20260501T00Z_MSC_GDPS_WindSpeed_IsbL-0970_LatLon0.15_PT024H.grib2 2026-05-01 04:02 1.9M
20260501T00Z_MSC_GDPS_WindSpeed_IsbL-0985_LatLon0.15_PT024H.grib2 2026-05-01 04:02 1.9M
20260501T00Z_MSC_GDPS_WindSpeed_IsbL-1000_LatLon0.15_PT024H.grib2 2026-05-01 04:02 1.8M
20260501T00Z_MSC_GDPS_WindSpeed_IsbL-1015_LatLon0.15_PT024H.grib2 2026-05-01 04:02 1.8M
20260501T00Z_MSC_GDPS_WindU_AGL-10m_LatLon0.15_PT024H.grib2 2026-05-01 04:02 1.3M
20260501T00Z_MSC_GDPS_WindU_AGL-120m_LatLon0.15_PT024H.grib2 2026-05-01 04:02 1.0M
20260501T00Z_MSC_GDPS_WindU_AGL-40m_LatLon0.15_PT024H.grib2 2026-05-01 04:02 1.0M
20260501T00Z_MSC_GDPS_WindU_AGL-80m_LatLon0.15_PT024H.grib2 2026-05-01 04:02 1.0M
20260501T00Z_MSC_GDPS_WindU_IsbL-0001_LatLon0.15_PT024H.grib2 2026-05-01 04:02 500K
20260501T00Z_MSC_GDPS_WindU_IsbL-0005_LatLon0.15_PT024H.grib2 2026-05-01 04:02 696K
20260501T00Z_MSC_GDPS_WindU_IsbL-0010_LatLon0.15_PT024H.grib2 2026-05-01 04:02 706K
20260501T00Z_MSC_GDPS_WindU_IsbL-0020_LatLon0.15_PT024H.grib2 2026-05-01 04:02 736K
20260501T00Z_MSC_GDPS_WindU_IsbL-0030_LatLon0.15_PT024H.grib2 2026-05-01 04:02 742K
20260501T00Z_MSC_GDPS_WindU_IsbL-0050_LatLon0.15_PT024H.grib2 2026-05-01 04:02 772K
20260501T00Z_MSC_GDPS_WindU_IsbL-0100_LatLon0.15_PT024H.grib2 2026-05-01 04:02 923K
20260501T00Z_MSC_GDPS_WindU_IsbL-0150_LatLon0.15_PT024H.grib2 2026-05-01 04:02 1.0M
20260501T00Z_MSC_GDPS_WindU_IsbL-0175_LatLon0.15_PT024H.grib2 2026-05-01 04:02 1.0M
20260501T00Z_MSC_GDPS_WindU_IsbL-0200_LatLon0.15_PT024H.grib2 2026-05-01 04:02 1.1M
20260501T00Z_MSC_GDPS_WindU_IsbL-0225_LatLon0.15_PT024H.grib2 2026-05-01 04:02 854K
20260501T00Z_MSC_GDPS_WindU_IsbL-0250_LatLon0.15_PT024H.grib2 2026-05-01 04:02 855K
20260501T00Z_MSC_GDPS_WindU_IsbL-0275_LatLon0.15_PT024H.grib2 2026-05-01 04:02 880K
20260501T00Z_MSC_GDPS_WindU_IsbL-0300_LatLon0.15_PT024H.grib2 2026-05-01 04:02 870K
20260501T00Z_MSC_GDPS_WindU_IsbL-0350_LatLon0.15_PT024H.grib2 2026-05-01 04:02 1.1M
20260501T00Z_MSC_GDPS_WindU_IsbL-0400_LatLon0.15_PT024H.grib2 2026-05-01 04:02 1.1M
20260501T00Z_MSC_GDPS_WindU_IsbL-0450_LatLon0.15_PT024H.grib2 2026-05-01 04:02 1.1M
20260501T00Z_MSC_GDPS_WindU_IsbL-0500_LatLon0.15_PT024H.grib2 2026-05-01 04:02 1.1M
20260501T00Z_MSC_GDPS_WindU_IsbL-0550_LatLon0.15_PT024H.grib2 2026-05-01 04:02 1.1M
20260501T00Z_MSC_GDPS_WindU_IsbL-0600_LatLon0.15_PT024H.grib2 2026-05-01 04:02 1.1M
20260501T00Z_MSC_GDPS_WindU_IsbL-0650_LatLon0.15_PT024H.grib2 2026-05-01 04:02 1.2M
20260501T00Z_MSC_GDPS_WindU_IsbL-0700_LatLon0.15_PT024H.grib2 2026-05-01 04:02 1.2M
20260501T00Z_MSC_GDPS_WindU_IsbL-0750_LatLon0.15_PT024H.grib2 2026-05-01 04:02 1.3M
20260501T00Z_MSC_GDPS_WindU_IsbL-0800_LatLon0.15_PT024H.grib2 2026-05-01 04:02 1.4M
20260501T00Z_MSC_GDPS_WindU_IsbL-0850_LatLon0.15_PT024H.grib2 2026-05-01 04:02 1.4M
20260501T00Z_MSC_GDPS_WindU_IsbL-0875_LatLon0.15_PT024H.grib2 2026-05-01 04:02 1.5M
20260501T00Z_MSC_GDPS_WindU_IsbL-0900_LatLon0.15_PT024H.grib2 2026-05-01 04:02 1.5M
20260501T00Z_MSC_GDPS_WindU_IsbL-0925_LatLon0.15_PT024H.grib2 2026-05-01 04:02 1.5M
20260501T00Z_MSC_GDPS_WindU_IsbL-0950_LatLon0.15_PT024H.grib2 2026-05-01 04:02 1.4M
20260501T00Z_MSC_GDPS_WindU_IsbL-0970_LatLon0.15_PT024H.grib2 2026-05-01 04:02 1.4M
20260501T00Z_MSC_GDPS_WindU_IsbL-0985_LatLon0.15_PT024H.grib2 2026-05-01 04:02 1.4M
20260501T00Z_MSC_GDPS_WindU_IsbL-1000_LatLon0.15_PT024H.grib2 2026-05-01 04:02 1.4M
20260501T00Z_MSC_GDPS_WindU_IsbL-1015_LatLon0.15_PT024H.grib2 2026-05-01 04:02 1.3M
20260501T00Z_MSC_GDPS_WindV_AGL-10m_LatLon0.15_PT024H.grib2 2026-05-01 04:02 1.3M
20260501T00Z_MSC_GDPS_WindV_AGL-120m_LatLon0.15_PT024H.grib2 2026-05-01 04:02 1.0M
20260501T00Z_MSC_GDPS_WindV_AGL-40m_LatLon0.15_PT024H.grib2 2026-05-01 04:02 972K
20260501T00Z_MSC_GDPS_WindV_AGL-80m_LatLon0.15_PT024H.grib2 2026-05-01 04:02 1.0M
20260501T00Z_MSC_GDPS_WindV_IsbL-0001_LatLon0.15_PT024H.grib2 2026-05-01 04:02 781K
20260501T00Z_MSC_GDPS_WindV_IsbL-0005_LatLon0.15_PT024H.grib2 2026-05-01 04:02 767K
20260501T00Z_MSC_GDPS_WindV_IsbL-0010_LatLon0.15_PT024H.grib2 2026-05-01 04:02 799K
20260501T00Z_MSC_GDPS_WindV_IsbL-0020_LatLon0.15_PT024H.grib2 2026-05-01 04:02 855K
20260501T00Z_MSC_GDPS_WindV_IsbL-0030_LatLon0.15_PT024H.grib2 2026-05-01 04:02 856K
20260501T00Z_MSC_GDPS_WindV_IsbL-0050_LatLon0.15_PT024H.grib2 2026-05-01 04:02 907K
20260501T00Z_MSC_GDPS_WindV_IsbL-0100_LatLon0.15_PT024H.grib2 2026-05-01 04:02 1.1M
20260501T00Z_MSC_GDPS_WindV_IsbL-0150_LatLon0.15_PT024H.grib2 2026-05-01 04:02 1.0M
20260501T00Z_MSC_GDPS_WindV_IsbL-0175_LatLon0.15_PT024H.grib2 2026-05-01 04:02 1.0M
20260501T00Z_MSC_GDPS_WindV_IsbL-0200_LatLon0.15_PT024H.grib2 2026-05-01 04:02 844K
20260501T00Z_MSC_GDPS_WindV_IsbL-0225_LatLon0.15_PT024H.grib2 2026-05-01 04:02 852K
20260501T00Z_MSC_GDPS_WindV_IsbL-0250_LatLon0.15_PT024H.grib2 2026-05-01 04:02 850K
20260501T00Z_MSC_GDPS_WindV_IsbL-0275_LatLon0.15_PT024H.grib2 2026-05-01 04:02 876K
20260501T00Z_MSC_GDPS_WindV_IsbL-0300_LatLon0.15_PT024H.grib2 2026-05-01 04:02 864K
20260501T00Z_MSC_GDPS_WindV_IsbL-0350_LatLon0.15_PT024H.grib2 2026-05-01 04:02 875K
20260501T00Z_MSC_GDPS_WindV_IsbL-0400_LatLon0.15_PT024H.grib2 2026-05-01 04:02 878K
20260501T00Z_MSC_GDPS_WindV_IsbL-0450_LatLon0.15_PT024H.grib2 2026-05-01 04:02 1.1M
20260501T00Z_MSC_GDPS_WindV_IsbL-0500_LatLon0.15_PT024H.grib2 2026-05-01 04:02 1.1M
20260501T00Z_MSC_GDPS_WindV_IsbL-0550_LatLon0.15_PT024H.grib2 2026-05-01 04:02 1.1M
20260501T00Z_MSC_GDPS_WindV_IsbL-0600_LatLon0.15_PT024H.grib2 2026-05-01 04:02 1.1M
20260501T00Z_MSC_GDPS_WindV_IsbL-0650_LatLon0.15_PT024H.grib2 2026-05-01 04:02 1.2M
20260501T00Z_MSC_GDPS_WindV_IsbL-0700_LatLon0.15_PT024H.grib2 2026-05-01 04:02 1.2M
20260501T00Z_MSC_GDPS_WindV_IsbL-0750_LatLon0.15_PT024H.grib2 2026-05-01 04:02 1.3M
20260501T00Z_MSC_GDPS_WindV_IsbL-0800_LatLon0.15_PT024H.grib2 2026-05-01 04:02 1.3M
20260501T00Z_MSC_GDPS_WindV_IsbL-0850_LatLon0.15_PT024H.grib2 2026-05-01 04:02 1.4M
20260501T00Z_MSC_GDPS_WindV_IsbL-0875_LatLon0.15_PT024H.grib2 2026-05-01 04:02 1.4M
20260501T00Z_MSC_GDPS_WindV_IsbL-0900_LatLon0.15_PT024H.grib2 2026-05-01 04:02 1.5M
20260501T00Z_MSC_GDPS_WindV_IsbL-0925_LatLon0.15_PT024H.grib2 2026-05-01 04:02 1.5M
20260501T00Z_MSC_GDPS_WindV_IsbL-0950_LatLon0.15_PT024H.grib2 2026-05-01 04:02 1.4M
20260501T00Z_MSC_GDPS_WindV_IsbL-0970_LatLon0.15_PT024H.grib2 2026-05-01 04:02 1.4M
20260501T00Z_MSC_GDPS_WindV_IsbL-0985_LatLon0.15_PT024H.grib2 2026-05-01 04:02 1.4M
20260501T00Z_MSC_GDPS_WindV_IsbL-1000_LatLon0.15_PT024H.grib2 2026-05-01 04:02 1.4M
20260501T00Z_MSC_GDPS_WindV_IsbL-1015_LatLon0.15_PT024H.grib2 2026-05-01 04:02 1.3M